Wetbulb
55.80 55.92 55.86 56.94 58.65 59.42 60.82 61.21 59.57 58.10 57.21 56.84 55.72 55.22 55.52 57.18 55.70 53.13 49.02 51.57 52.70 54.95 54.65 52.55 50.56 49.28 49.25 46.98 48.16 47.28 36.83 33.62 36.18 37.52 39.73 45.33 43.87 47.64 49.14 46.80 48.38 50.76 51.05 55.81 62.57
55.55 55.41 55.60 55.64 55.91 57.35 58.23 60.34 59.87 58.16 57.27 56.66 55.21 54.93 55.70 56.15 52.03 49.12 54.61 55.56 54.54 56.39 51.66 48.18 44.81 46.49 42.63 43.16 44.72 40.64 35.04 35.69 41.06 41.53 40.31 43.26 43.54 44.88 44.79 45.01 45.78 48.36 52.12 54.43 61.58
55.03 55.79 54.89 54.87 54.86 55.70 56.93 59.01 60.35 58.42 57.23 56.55 54.81 54.82 55.78 54.56 46.92 46.49 56.09 55.64 56.77 55.59 51.41 48.64 47.39 45.36 40.63 42.44 41.12 40.64 34.91 39.74 41.06 42.46 43.40 42.15 41.98 44.70 42.91 42.03 45.31 45.76 48.82 52.00 57.73
54.87 54.77 55.23 54.61 54.48 54.60 55.74 57.04 59.86 58.16 57.11 55.93 54.72 55.06 55.29 51.52 36.68 48.58 56.22 57.52 57.12 54.10 50.46 47.31 45.25 41.25 38.56 37.26 41.35 35.33 39.87 41.08 41.76 43.25 42.25 40.16 42.60 40.98 42.77 43.53 48.08 49.24 51.55 52.50 54.83
55.27 55.10 54.44 54.37 54.03 53.95 54.45 56.40 57.99 58.11 56.91 55.36 54.62 55.41 51.46 45.13 45.08 53.55 57.00 55.30 52.68 50.50 47.36 45.18 42.25 40.89 36.50 38.78 39.90 37.34 39.16 41.40 42.21 42.06 41.90 42.76 39.84 40.04 41.32 45.90 48.18 49.55 50.80 53.22 54.18
55.12 54.89 54.45 53.83 53.70 53.52 53.80 55.57 57.44 57.20 56.04 54.53 55.00 55.56 48.55 40.20 50.69 52.43 52.50 50.91 49.44 48.39 46.90 46.47 43.33 44.08 39.60 38.51 37.92 40.09 40.30 40.90 42.50 42.50 42.15 39.70 39.64 40.56 41.61 44.81 46.12 48.23 48.67 51.50 53.84
54.90 54.68 54.18 53.81 53.54 53.22 53.73 55.60 57.64 56.19 55.05 54.68 55.71 52.49 46.72 44.46 51.47 51.11 50.94 49.24 50.52 49.24 46.07 48.51 47.79 42.86 41.82 37.75 42.23 41.14 36.55 38.99 40.29 41.54 40.34 42.42 36.98 37.00 41.93 43.49 43.39 46.47 48.44 51.05 53.18
54.18 54.22 53.82 53.61 53.15 52.85 54.17 56.89 56.09 54.91 54.27 54.53 55.54 50.81 42.62 52.12 52.60 50.12 50.43 49.22 50.82 51.14 49.67 49.54 49.18 44.47 41.21 42.14 39.26 36.81 37.34 31.05 38.42 39.97 41.36 40.10 30.70 39.08 42.29 41.60 41.17 44.73 48.22 50.32 51.99
53.09 53.40 53.55 53.24 52.68 52.36 55.08 55.92 54.40 53.71 54.20 54.42 49.93 47.54 41.13 51.48 46.70 49.91 50.19 46.72 48.56 50.46 50.19 49.69 47.46 41.89 40.84 35.76 31.92 34.92 27.48 30.74 33.79 41.01 40.16 38.74 32.82 39.69 42.29 41.93 41.19 43.22 47.42 48.53 50.53
52.46 51.99 52.99 52.84 52.19 51.88 52.95 53.44 53.59 53.42 52.60 51.67 49.84 42.38 44.99 43.02 47.21 48.13 49.59 48.69 46.50 47.03 45.36 43.77 41.29 37.21 37.60 34.44 24.61 29.73 30.72 33.20 32.72 38.90 39.36 36.86 35.19 39.79 42.42 41.67 41.49 45.70 46.74 48.22 50.11
52.94 52.07 52.30 52.31 51.89 53.33 51.12 49.02 43.65 41.78 45.72 41.41 41.68 42.34 44.23 47.56 49.32 46.17 48.09 46.45 46.07 43.16 36.84 40.80 35.48 30.55 33.37 35.85 35.75 33.90 32.87 31.77 35.05 40.86 37.62 35.88 35.87 38.28 42.41 42.09 43.27 44.39 46.03 48.59 49.88
52.11 51.84 51.64 51.44 52.82 53.96 50.62 44.27 44.48 46.00 38.46 43.92 44.28 44.81 46.95 47.53 41.30 44.23 48.55 41.42 40.45 35.37 39.07 36.05 30.50 36.41 39.06 38.18 36.29 35.23 32.82 31.72 36.58 41.24 37.33 36.71 35.29 39.69 42.20 41.74 43.32 43.77 43.52 46.37 49.45
51.64 51.22 50.79 51.04 51.34 49.86 47.07 46.13 49.62 47.83 38.91 41.29 43.45 43.18 43.38 45.39 40.73 41.08 44.62 42.69 38.49 35.76 35.82 33.76 35.82 40.41 38.02 36.64 35.41 34.09 32.55 32.58 34.25 36.59 39.74 37.81 34.80 37.93 42.21 43.79 44.28 44.10 44.74 46.10 50.27
49.46 50.29 50.55 50.64 46.88 48.33 44.52 49.02 49.62 49.41 33.63 34.67 37.96 41.64 43.80 44.76 38.84 45.74 46.35 43.14 38.85 34.23 36.67 35.69 39.72 38.01 37.64 36.57 37.73 31.53 38.85 38.48 36.56 33.86 31.10 38.44 27.16 35.70 38.06 39.16 41.88 43.47 44.61 46.85 52.04
49.73 50.13 50.91 50.10 47.16 44.97 47.50 49.37 49.84 46.03 23.36 37.14 38.03 47.10 44.86 39.95 39.80 39.79 47.63 43.05 35.62 36.60 37.11 34.00 37.33 36.33 35.22 37.02 39.20 34.81 40.33 38.33 37.43 34.40 32.02 34.81 30.72 34.15 37.05 38.52 41.80 42.80 45.97 51.46 52.47
49.99 49.55 50.33 47.75 48.30 48.87 50.25 49.43 45.62 31.49 23.53 33.40 38.47 38.04 37.42 39.55 38.25 40.97 41.44 44.20 43.12 38.02 38.38 36.77 41.91 40.03 39.48 41.12 40.65 41.06 38.11 38.11 37.22 35.04 29.20 34.51 32.67 31.50 33.30 36.35 40.59 47.48 50.33 51.42 52.34
50.46 50.05 48.73 49.67 44.64 50.80 49.61 43.54 30.70 25.63 35.82 31.40 33.81 36.89 36.62 35.57 36.98 37.13 35.21 35.21 32.93 30.47 31.23 36.51 37.48 41.35 41.82 36.59 39.53 38.97 35.34 27.61 27.36 28.35 27.45 34.12 31.96 31.54 36.90 39.72 43.47 46.06 48.56 50.93 51.53
49.89 49.46 48.32 48.91 50.92 49.83 45.54 35.30 25.87 31.54 33.50 37.82 36.57 36.90 33.91 36.68 36.63 36.22 35.22 31.92 37.99 36.50 33.13 29.53 28.72 36.85 40.18 38.10 35.18 37.09 35.48 29.19 24.06 25.57 29.75 34.71 28.43 31.70 40.84 42.56 46.40 47.23 47.49 47.11 47.32
48.96 49.06 47.66 48.96 50.87 49.00 39.79 28.73 29.03 32.94 35.62 34.91 36.13 32.06 32.22 35.70 35.85 34.99 33.56 34.85 38.01 38.59 33.18 31.70 31.69 40.20 40.10 40.53 39.52 37.24 33.54 37.32 31.24 33.65 29.65 32.17 33.01 37.42 40.17 41.21 41.92 42.86 45.59 45.91 46.61
48.06 45.78 44.54 50.39 49.95 44.97 35.23 32.34 33.30 37.24 38.25 37.66 31.99 34.65 29.30 32.36 32.34 33.24 33.76 38.49 38.04 40.70 40.93 37.04 30.69 36.92 38.76 41.19 41.24 38.53 40.39 30.47 32.64 26.92 25.58 29.20 29.14 31.69 35.24 39.36 41.28 41.56 42.43 44.23 45.52
46.64 39.55 45.66 50.49 48.39 39.35 30.87 32.91 35.61 39.50 39.15 36.95 35.47 34.25 33.56 32.17 34.39 33.90 35.06 38.74 40.60 40.54 41.12 38.30 32.99 34.82 38.15 37.01 35.41 36.19 34.28 34.89 34.21 30.61 25.16 24.12 28.12 39.49 38.61 40.44 40.55 41.62 43.05 43.72 44.52
43.67 33.48 46.75 49.13 34.93 35.93 34.05 36.08 37.29 38.33 41.27 39.73 40.50 38.58 36.03 35.91 35.16 35.64 35.25 38.20 42.87 41.85 36.14 39.44 36.54 31.35 34.04 39.10 40.16 37.71 35.46 35.22 26.82 28.02 29.55 27.68 28.53 41.91 41.64 41.91 42.31 41.73 42.78 43.62 44.06
38.55 37.04 46.42 46.15 32.01 32.96 36.09 35.51 37.34 37.89 39.78 39.61 38.89 40.25 40.12 37.66 33.96 37.50 38.31 42.67 43.49 41.49 37.31 38.26 32.85 28.25 29.74 34.34 37.77 36.28 37.23 37.74 36.89 34.56 26.73 24.32 27.92 40.67 39.54 40.75 42.26 41.84 42.42 42.78 43.48
40.49 33.62 38.86 41.06 40.13 36.20 33.82 33.56 35.20 41.01 40.78 41.69 40.35 40.83 39.37 37.36 39.21 36.37 37.60 41.63 42.75 42.44 42.82 41.50 34.33 30.17 25.94 28.74 33.86 31.37 35.14 36.64 34.20 27.77 29.45 29.32 31.58 36.33 38.23 38.91 40.30 41.03 41.36 41.55 42.78
42.07 36.28 38.73 33.82 37.22 36.52 36.58 35.04 35.22 35.96 41.32 42.10 39.31 40.09 38.92 35.11 36.71 36.40 38.37 39.15 41.88 43.93 40.43 39.34 29.29 26.80 33.17 35.83 35.59 34.74 34.59 35.32 31.51 34.10 28.48 32.42 33.35 36.41 38.32 38.64 39.93 41.22 41.96 42.05 42.70
39.66 37.97 40.47 37.81 38.04 36.09 34.99 35.33 36.06 38.03 39.18 37.90 38.33 40.11 40.35 36.75 37.97 35.98 38.41 38.23 36.83 39.13 37.08 39.25 29.60 29.84 29.53 34.96 34.77 31.08 34.93 35.76 35.77 36.36 35.55 35.36 34.10 39.32 39.79 40.59 39.86 41.07 41.87 41.69 42.28
44.91 45.51 41.12 37.15 35.46 35.79 35.43 36.65 37.21 39.50 40.52 41.15 40.39 39.93 38.38 39.03 41.47 40.91 40.81 40.80 39.03 37.63 36.56 36.12 32.47 29.55 24.61 31.45 31.47 27.07 31.79 34.40 35.00 36.61 35.99 31.46 36.06 39.52 39.00 40.75 40.20 40.72 41.62 41.44 41.94
MSLP
1016.92 1016.39 1015.94 1015.61 1015.30 1014.95 1014.63 1014.20 1014.20 1014.40 1014.47 1014.91 1015.08 1015.06 1015.10 1015.42 1015.39 1015.20 1014.48 1013.91 1013.79 1014.12 1014.59 1014.04 1014.20 1014.22 1014.38 1014.39 1014.22 1014.18 1013.91 1012.09 1011.82 1011.10 1009.95 1009.42 1008.49 1007.59 1006.80 1006.30 1005.69 1005.20 1005.02 1005.70 1006.27
1016.60 1016.27 1015.72 1015.49 1015.05 1014.88 1014.68 1014.12 1013.68 1013.74 1014.11 1014.43 1014.61 1014.88 1015.06 1015.23 1015.21 1014.15 1013.07 1013.62 1014.09 1014.32 1014.28 1014.06 1014.17 1014.21 1014.58 1014.57 1014.40 1014.20 1013.27 1012.29 1011.99 1011.11 1010.20 1009.60 1009.06 1008.52 1007.86 1006.77 1006.15 1005.56 1005.15 1005.42 1006.39
1016.20 1015.97 1015.41 1015.15 1014.96 1014.48 1014.20 1013.92 1013.31 1013.33 1013.78 1014.09 1014.35 1014.69 1014.91 1015.14 1014.71 1012.89 1013.16 1013.55 1014.12 1014.32 1014.13 1014.35 1014.67 1014.74 1015.01 1014.76 1014.24 1013.75 1012.51 1012.73 1012.19 1011.51 1010.84 1010.15 1009.57 1009.07 1008.40 1007.27 1006.77 1006.51 1006.03 1005.66 1006.25
1015.95 1015.60 1015.12 1014.84 1014.76 1014.43 1013.90 1013.79 1013.18 1013.18 1013.38 1013.87 1014.14 1014.48 1014.83 1014.89 1013.87 1012.95 1013.24 1013.73 1013.98 1014.14 1014.11 1014.44 1014.98 1015.06 1015.22 1014.94 1014.14 1013.56 1012.82 1012.46 1012.00 1011.65 1011.22 1010.55 1010.24 1009.51 1008.65 1007.93 1007.54 1006.81 1007.01 1006.71 1006.52
1015.51 1015.19 1014.88 1014.54 1014.23 1013.97 1013.73 1013.15 1012.99 1012.61 1013.13 1013.60 1013.88 1014.24 1014.81 1014.15 1012.69 1012.87 1013.16 1013.66 1013.96 1014.29 1014.14 1014.42 1014.97 1015.28 1015.01 1014.79 1014.38 1013.64 1012.91 1012.35 1011.72 1011.51 1011.21 1010.92 1010.30 1009.84 1009.03 1008.41 1007.91 1007.42 1007.13 1007.37 1007.31
1015.07 1014.75 1014.46 1014.23 1013.82 1013.57 1013.28 1012.67 1012.53 1012.51 1012.68 1013.27 1013.53 1014.13 1014.36 1013.29 1012.40 1012.58 1013.01 1013.70 1013.71 1013.95 1014.00 1014.40 1014.88 1015.14 1015.21 1015.14 1014.87 1013.66 1012.98 1012.36 1011.74 1011.28 1010.72 1010.66 1010.14 1009.98 1009.19 1008.87 1008.36 1007.84 1007.32 1007.68 1008.28
1014.62 1014.30 1014.03 1013.79 1013.50 1013.14 1012.62 1012.17 1011.67 1012.50 1012.41 1013.14 1013.32 1013.85 1013.56 1012.58 1012.24 1012.58 1012.87 1013.31 1013.53 1013.77 1013.77 1014.22 1014.72 1015.36 1015.43 1015.11 1014.72 1014.01 1013.20 1012.49 1011.53 1010.78 1010.34 1010.49 1009.32 1009.16 1009.18 1008.87 1008.36 1007.84 1007.55 1007.53 1007.72
1014.19 1013.80 1013.63 1013.48 1013.22 1012.83 1012.04 1011.23 1011.69 1012.24 1012.69 1013.34 1013.21 1013.83 1012.89 1012.12 1012.50 1012.73 1012.89 1013.15 1013.47 1013.74 1013.95 1014.49 1014.68 1015.07 1015.58 1015.57 1014.87 1014.03 1013.49 1012.47 1010.60 1010.14 1009.88 1010.54 1008.00 1008.58 1008.82 1008.56 1008.15 1007.87 1007.57 1007.79 1007.94
1013.84 1013.65 1013.30 1013.12 1013.08 1012.85 1012.17 1011.32 1012.15 1012.28 1012.59 1013.48 1013.33 1013.77 1012.51 1012.67 1012.77 1012.47 1012.64 1012.75 1013.08 1013.69 1014.01 1014.36 1014.80 1015.11 1015.68 1015.71 1015.12 1013.83 1012.90 1012.03 1010.59 1009.60 1009.58 1009.35 1007.85 1008.09 1008.19 1007.95 1007.62 1007.59 1007.70 1007.81 1007.93
1013.33 1013.30 1012.97 1012.76 1012.72 1012.90 1012.87 1012.48 1012.51 1012.89 1013.12 1013.63 1013.37 1013.98 1012.64 1012.04 1012.14 1012.03 1012.43 1012.70 1012.98 1013.52 1014.12 1014.69 1014.76 1015.01 1015.25 1015.27 1014.33 1013.19 1012.82 1011.35 1009.94 1009.31 1009.51 1008.81 1007.72 1007.68 1007.84 1007.91 1007.50 1007.41 1007.65 1007.24 1006.88
1012.50 1012.49 1012.58 1012.44 1012.45 1012.32 1012.95 1013.12 1013.63 1013.44 1013.02 1012.67 1012.55 1012.06 1011.63 1012.04 1012.21 1012.29 1012.48 1013.05 1013.17 1013.31 1013.79 1014.29 1014.66 1014.62 1014.03 1013.80 1013.72 1013.25 1012.61 1011.15 1009.42 1008.57 1009.25 1008.26 1007.67 1007.43 1008.06 1008.01 1007.38 1007.36 1008.06 1006.97 1006.42
1012.31 1012.25 1012.14 1012.31 1012.25 1011.27 1012.32 1012.74 1012.34 1012.81 1012.85 1012.69 1012.45 1012.07 1011.91 1012.13 1011.88 1012.09 1012.55 1012.92 1012.96 1013.20 1013.43 1014.21 1013.79 1013.37 1013.11 1012.96 1013.11 1012.80 1011.88 1010.62 1009.14 1008.61 1008.98 1008.11 1007.52 1007.35 1007.62 1008.00 1007.12 1006.99 1007.20 1006.97 1006.83
1012.02 1012.11 1012.13 1012.40 1012.45 1012.48 1012.51 1012.62 1012.39 1012.48 1012.62 1012.05 1012.01 1011.84 1012.00 1012.27 1011.64 1011.91 1012.68 1012.39 1012.40 1012.48 1012.72 1013.22 1012.34 1011.93 1012.48 1012.35 1012.11 1011.59 1011.07 1010.11 1009.86 1009.71 1008.73 1008.47 1007.91 1007.24 1006.77 1006.99 1006.78 1006.72 1006.86 1007.00 1006.81
1011.76 1012.03 1012.36 1012.38 1012.81 1012.35 1012.49 1012.71 1012.78 1012.67 1012.50 1012.26 1011.73 1011.56 1011.95 1011.90 1011.78 1011.65 1012.22 1012.29 1012.04 1012.11 1012.05 1012.13 1011.48 1011.51 1011.43 1011.35 1011.11 1010.66 1009.73 1009.02 1009.42 1009.68 1008.71 1008.14 1007.79 1007.61 1007.94 1007.79 1007.23 1006.58 1006.52 1006.82 1006.86
1011.48 1011.68 1011.99 1012.36 1012.34 1012.12 1012.62 1012.59 1012.70 1012.69 1012.45 1012.40 1012.08 1012.08 1011.71 1011.89 1011.83 1012.03 1012.15 1012.36 1012.13 1011.68 1011.90 1011.51 1011.15 1011.48 1011.22 1010.82 1010.93 1010.06 1009.30 1009.08 1008.87 1008.87 1009.08 1008.07 1008.35 1008.52 1008.10 1007.51 1006.62 1006.50 1006.69 1006.90 1007.11
1010.97 1011.55 1011.97 1012.31 1012.25 1012.59 1012.58 1012.47 1012.80 1012.94 1011.95 1012.02 1012.06 1011.86 1011.91 1011.83 1011.55 1011.99 1012.27 1012.44 1012.03 1011.86 1011.56 1011.24 1011.05 1011.27 1010.79 1010.63 1010.45 1010.06 1009.37 1008.34 1008.20 1008.32 1007.97 1008.22 1008.52 1008.57 1008.58 1008.19 1007.22 1006.88 1007.08 1007.32 1007.18
1011.52 1012.07 1012.23 1011.64 1012.18 1012.53 1012.65 1013.02 1013.10 1012.23 1012.09 1012.14 1011.56 1011.53 1011.57 1011.34 1011.35 1011.52 1011.78 1011.89 1011.80 1011.86 1011.32 1010.56 1010.52 1010.70 1010.86 1010.67 1010.22 1010.11 1009.79 1008.79 1008.16 1007.61 1007.88 1008.20 1008.65 1009.15 1008.77 1008.09 1007.19 1007.07 1007.31 1007.79 1008.18
1012.44 1012.51 1012.55 1012.18 1012.60 1012.86 1013.17 1013.55 1012.53 1012.08 1011.53 1011.36 1011.16 1011.06 1011.22 1010.91 1010.99 1011.16 1011.08 1011.11 1010.95 1011.19 1011.35 1010.73 1010.88 1011.08 1011.20 1011.00 1010.85 1010.16 1009.74 1008.69 1007.97 1007.61 1007.65 1008.05 1008.86 1009.47 1008.92 1008.45 1007.75 1007.99 1008.11 1008.58 1008.85
1013.07 1012.70 1012.61 1012.80 1013.10 1013.01 1013.34 1013.23 1012.87 1012.36 1011.85 1011.08 1010.93 1010.63 1010.65 1010.61 1010.57 1010.66 1010.68 1010.78 1010.72 1010.79 1011.32 1011.03 1011.05 1011.12 1011.17 1010.98 1010.85 1009.56 1008.80 1007.67 1007.75 1007.13 1007.88 1009.09 1009.81 1009.95 1009.83 1009.18 1008.78 1009.05 1009.36 1009.78 1010.13
1013.21 1012.99 1013.55 1013.27 1013.53 1013.58 1013.82 1013.26 1013.24 1012.55 1011.71 1011.05 1010.30 1009.92 1010.05 1010.18 1010.17 1010.38 1010.37 1010.52 1010.84 1010.81 1011.07 1011.53 1011.43 1011.26 1011.06 1010.78 1009.84 1009.41 1008.28 1007.30 1006.94 1007.08 1007.87 1009.11 1009.63 1010.42 1010.11 1009.47 1009.63 1009.86 1010.39 1010.69 1010.54
1013.17 1013.50 1014.60 1014.02 1013.85 1013.97 1014.21 1014.04 1013.56 1012.41 1011.71 1010.88 1010.06 1009.36 1009.43 1009.73 1010.20 1010.63 1010.18 1010.82 1010.85 1010.93 1011.47 1011.54 1011.80 1011.24 1010.97 1010.02 1009.27 1008.88 1007.92 1007.25 1006.82 1006.75 1007.67 1009.00 1010.81 1010.59 1010.46 1010.10 1010.25 1010.50 1010.62 1010.53 1010.79
1013.72 1014.53 1015.13 1014.66 1014.75 1014.86 1014.69 1014.32 1013.82 1012.34 1011.40 1010.61 1009.82 1009.24 1009.17 1009.44 1009.71 1009.69 1010.14 1010.42 1010.85 1011.13 1011.34 1011.19 1011.22 1010.76 1009.88 1009.20 1008.88 1008.45 1007.65 1007.05 1007.06 1007.18 1007.47 1009.22 1011.10 1010.73 1010.54 1010.53 1010.51 1010.76 1010.90 1011.17 1011.05
1014.73 1015.62 1015.64 1015.10 1014.92 1015.01 1015.03 1014.54 1013.93 1012.42 1011.41 1010.69 1009.83 1009.59 1009.47 1009.51 1009.72 1009.58 1010.02 1010.46 1010.26 1010.38 1010.81 1010.69 1010.69 1010.49 1009.74 1009.49 1008.75 1008.30 1007.52 1006.99 1007.06 1007.17 1007.95 1008.85 1011.00 1010.53 1010.54 1010.83 1010.91 1010.83 1011.09 1011.59 1011.74
1014.83 1015.51 1015.94 1015.64 1015.02 1014.47 1014.73 1014.40 1013.22 1012.48 1011.59 1010.86 1010.05 1009.56 1009.45 1009.34 1009.30 1009.60 1009.96 1010.29 1010.17 1010.19 1010.38 1010.53 1010.75 1011.02 1010.70 1010.44 1009.98 1009.23 1008.24 1007.42 1007.25 1007.91 1008.77 1009.95 1010.56 1011.01 1011.10 1011.12 1011.45 1011.68 1011.79 1012.22 1012.32
1014.56 1015.16 1015.23 1015.23 1014.52 1014.57 1014.58 1014.16 1012.83 1012.22 1011.64 1011.06 1010.31 1009.89 1009.65 1009.58 1009.56 1009.74 1009.89 1009.98 1009.99 1009.90 1009.81 1010.05 1011.09 1011.27 1010.92 1010.51 1010.06 1009.55 1009.07 1008.48 1008.21 1008.48 1009.24 1010.48 1010.73 1011.02 1011.28 1011.60 1011.98 1012.34 1012.65 1012.77 1013.00
1014.33 1014.28 1014.49 1014.62 1014.83 1014.62 1014.43 1013.61 1012.73 1012.37 1012.00 1011.42 1010.81 1010.46 1010.47 1010.50 1010.24 1009.99 1009.92 1009.93 1010.06 1009.67 1009.90 1010.28 1011.32 1011.55 1011.28 1010.85 1010.54 1010.34 1009.97 1009.54 1009.06 1009.13 1009.41 1010.02 1010.66 1010.83 1011.03 1011.62 1012.19 1012.69 1013.16 1013.31 1013.78
1014.28 1013.67 1013.89 1014.95 1015.02 1014.25 1013.74 1013.31 1012.99 1012.64 1012.52 1012.19 1011.75 1011.11 1011.29 1011.51 1010.81 1010.34 1010.19 1010.32 1010.44 1010.46 1010.37 1010.62 1011.24 1011.59 1011.70 1011.31 1010.94 1010.95 1010.94 1010.54 1010.21 1010.07 1010.08 1010.41 1010.90 1011.14 1011.66 1012.18 1012.65 1013.07 1013.21 1013.86 1014.07
Wind_Speed
19 18 18 20 21 19 21 15 13 10 8 7 6 7 6 7 7 8 10 2 5 9 2 4 4 5 5 5 7 7 7 12 15 17 18 16 19 20 19 19 15 17 10 3 8
19 19 18 19 21 22 24 24 16 12 10 9 5 6 5 5 10 14 7 9 7 6 7 3 4 3 4 8 5 7 10 13 12 15 17 16 17 16 19 21 18 13 13 4 9
19 19 18 18 19 20 19 23 16 13 9 9 6 6 6 5 10 3 10 12 10 6 1 1 2 4 4 8 11 13 19 14 17 19 18 17 20 20 19 20 16 14 11 14 6
18 19 19 17 19 21 21 23 12 12 11 9 7 5 6 8 4 9 11 11 9 6 4 1 1 1 2 7 8 16 18 17 16 15 16 19 19 21 21 19 18 15 16 8 6
19 19 19 19 19 20 22 23 24 15 13 10 7 8 4 6 7 15 13 9 7 5 6 5 6 6 7 8 9 15 16 18 16 16 18 17 20 20 23 16 20 21 16 10 6
20 19 19 19 18 21 22 21 28 16 13 9 8 10 4 9 7 13 12 10 4 6 6 5 4 5 7 8 11 9 16 17 16 20 19 19 19 18 20 17 20 21 18 8 10
19 19 18 19 19 20 22 24 7 12 12 8 12 6 6 8 2 9 8 7 3 5 4 1 1 5 2 7 7 14 18 19 20 15 19 16 23 22 17 20 21 20 19 10 18
18 20 17 17 19 22 24 15 13 15 12 9 11 5 5 6 1 8 8 6 7 4 1 1 4 3 5 9 8 7 14 14 9 14 17 14 26 18 16 18 22 19 16 7 19
17 20 17 14 16 18 15 15 11 11 12 9 5 5 3 6 6 9 9 9 10 6 3 4 5 5 5 3 6 10 7 13 15 14 13 17 23 18 17 17 18 19 5 6 18
19 13 19 13 13 13 3 5 6 7 7 6 2 5 7 7 7 6 5 6 4 6 5 3 1 1 3 5 6 9 9 14 16 4 13 15 20 17 12 16 19 6 9 14 16
22 11 14 12 15 15 2 5 4 2 3 4 9 2 11 7 5 5 8 8 7 6 4 5 2 7 11 11 16 18 18 19 18 11 6 16 14 16 3 17 16 11 12 8 8
15 13 11 9 12 7 9 3 2 4 3 13 12 8 6 2 4 7 7 7 8 7 8 2 9 11 12 14 15 18 18 19 16 9 8 8 14 12 15 22 12 10 6 6 6
15 8 6 11 1 3 2 2 4 3 1 8 11 6 2 4 3 11 8 6 6 7 8 9 9 9 9 13 13 12 17 16 8 10 7 7 12 16 6 6 7 5 6 7 6
12 11 11 8 2 5 2 1 4 4 2 6 5 4 6 3 3 4 7 4 5 4 7 8 14 10 12 11 9 11 6 14 5 2 4 12 2 3 7 12 12 9 7 5 11
12 8 11 7 5 1 4 9 5 3 4 5 7 1 8 5 8 6 3 4 6 5 3 4 6 0 9 6 3 7 11 14 9 9 3 7 4 1 5 5 10 7 7 8 8
1 8 6 3 2 4 4 2 1 3 3 4 5 6 7 7 4 6 5 3 5 5 7 12 8 4 5 6 8 11 10 11 9 7 3 3 2 2 4 5 5 9 8 11 12
11 7 2 3 3 6 4 3 2 3 3 5 6 7 4 7 5 7 7 6 3 2 3 5 10 1 2 5 5 6 5 4 3 1 2 1 1 1 7 5 2 11 11 13 10
7 4 2 6 6 5 3 0 3 7 6 5 6 8 2 8 4 5 3 2 9 5 4 3 3 2 3 2 3 4 3 3 5 3 3 3 7 7 9 12 14 15 14 14 12
1 1 3 4 6 2 3 1 6 4 3 6 8 5 5 4 1 4 4 2 2 2 2 5 2 5 2 4 3 2 5 5 4 5 1 4 1 11 11 9 17 15 13 12 8
1 2 8 3 6 2 1 4 3 6 7 2 3 1 5 4 3 2 5 4 2 3 6 2 4 3 5 4 10 7 9 5 1 5 5 3 5 5 9 10 15 14 13 9 9
2 3 7 5 0 3 4 4 3 5 3 3 7 5 9 4 3 2 3 3 3 4 4 1 1 1 4 2 4 2 4 4 2 3 2 3 4 6 10 10 14 12 11 11 11
3 4 5 3 3 2 3 5 3 8 2 4 5 9 4 3 3 4 5 4 1 2 2 4 2 2 0 4 3 4 6 5 1 6 6 5 5 7 7 9 13 11 13 11 9
4 1 3 4 3 2 2 3 4 7 6 6 4 5 5 4 2 4 4 3 3 4 4 4 2 3 3 1 1 4 8 5 2 2 3 6 4 5 8 10 10 11 10 8 9
3 3 2 2 3 2 2 4 4 2 2 5 3 0 2 3 3 3 4 1 4 3 4 3 5 4 3 2 3 5 9 8 4 6 10 10 12 8 8 8 9 9 8 7 8
2 3 2 1 2 6 3 2 2 4 2 3 1 2 5 3 5 4 3 4 5 1 2 4 3 5 5 5 4 6 8 11 9 7 9 11 12 9 9 9 8 8 8 7 7
1 3 2 5 5 5 1 1 6 4 6 5 4 6 11 7 7 5 3 6 5 2 2 0 1 2 4 6 5 7 10 10 10 10 11 12 10 9 8 8 7 8 8 8 7
1 1 2 3 1 2 2 4 6 5 1 5 8 6 8 5 6 4 3 4 4 5 5 3 1 4 2 4 6 4 5 6 4 7 4 6 7 7 7 8 7 7 8 7 7
Wind_Direction
331 332 333 329 329 325 332 242 236 226 223 221 263 282 261 250 258 251 244 71 97 129 195 244 243 246 284 262 259 276 248 246 246 247 267 277 285 290 291 285 273 267 265 65 59
325 328 333 329 325 321 327 329 225 207 215 202 236 261 259 231 259 263 223 136 152 150 218 220 269 353 266 251 223 206 234 253 263 275 283 289 283 280 280 281 275 269 277 271 120
321 322 325 324 323 321 309 308 230 204 214 196 204 224 219 241 267 160 124 136 159 168 131 3 314 269 294 279 249 227 246 275 284 294 294 289 283 286 281 273 271 278 271 270 156
316 317 318 323 322 320 316 311 262 194 193 198 197 181 209 239 263 120 137 157 161 200 198 168 307 264 227 271 246 262 266 268 275 277 284 285 290 286 274 276 296 305 311 323 260
305 307 315 318 321 321 314 311 318 187 180 186 187 169 188 215 247 142 152 145 167 198 205 206 222 258 252 265 275 270 274 274 265 257 264 269 270 274 276 291 294 294 295 312 329
296 302 310 317 321 320 317 311 310 188 163 170 165 170 243 239 87 147 169 160 229 198 210 226 214 270 298 261 269 285 294 292 280 278 253 255 260 259 266 276 273 281 288 329 269
297 298 306 315 320 321 311 310 205 165 144 163 160 191 247 234 188 150 169 191 198 226 247 98 9 177 166 255 283 296 278 276 268 261 253 267 254 246 250 260 264 263 271 291 284
299 297 302 310 321 325 319 291 160 145 137 187 156 217 248 109 246 163 181 216 201 201 196 329 260 189 230 316 291 277 260 269 256 249 243 229 261 247 248 242 250 260 260 267 278
315 296 295 303 317 331 360 110 127 133 139 171 130 238 237 126 198 198 205 220 171 168 187 119 142 156 164 238 283 237 261 242 268 237 265 223 253 246 245 252 241 247 247 272 270
288 275 293 297 313 320 40 107 119 131 141 163 275 189 219 192 168 159 180 210 185 160 157 167 131 208 249 194 248 302 296 286 283 309 320 245 243 249 258 254 250 191 264 225 249
299 317 277 295 313 294 191 106 93 53 289 179 178 234 126 83 108 185 177 188 211 201 223 133 193 232 240 228 248 270 282 287 286 288 249 244 243 241 243 328 252 157 229 265 241
300 311 300 301 338 305 142 235 171 110 220 232 256 203 85 352 154 168 170 209 182 209 224 152 245 246 258 263 271 272 274 280 283 323 182 267 238 247 201 206 228 217 220 258 271
314 327 354 307 341 62 194 343 346 306 241 159 200 193 169 194 220 167 194 199 255 232 222 225 260 282 264 251 256 257 259 271 302 326 249 248 250 248 200 3 314 212 232 266 222
317 281 259 257 275 140 185 356 315 324 201 140 163 172 167 235 216 157 201 298 208 255 254 262 254 244 265 255 279 271 293 287 224 285 269 198 250 88 338 285 259 216 224 240 127
297 247 221 201 347 243 51 183 226 214 191 117 121 160 154 196 131 179 153 188 267 262 224 254 316 288 292 287 301 259 322 304 232 257 279 209 231 109 322 253 197 188 197 134 127
32 189 139 183 225 88 80 62 303 213 111 118 125 161 157 210 177 129 193 213 284 299 258 264 250 219 277 307 272 306 296 299 284 264 206 20 319 61 354 320 275 141 130 126 93
111 110 147 350 67 130 119 22 183 290 204 134 143 172 156 165 173 176 180 193 199 257 232 214 226 91 359 325 288 251 292 269 237 258 7 358 149 246 352 353 166 118 85 100 96
98 128 5 21 79 113 75 45 253 65 56 129 148 159 164 143 151 165 198 263 219 234 288 243 179 28 33 227 321 352 214 291 331 352 32 18 8 18 11 34 92 86 86 83 75
47 34 66 73 93 5 12 299 24 47 341 128 148 126 106 139 239 188 221 273 122 204 313 339 85 126 269 326 276 187 235 301 261 210 35 18 58 52 50 47 79 85 90 93 88
331 86 32 61 90 74 17 31 64 356 0 135 21 52 132 143 207 208 146 45 97 39 49 354 276 22 322 297 239 245 319 346 242 354 50 64 44 56 27 66 78 74 80 93 90
272 77 6 67 196 21 16 49 342 336 336 19 347 121 109 133 56 226 91 91 39 86 44 344 267 322 245 189 5 257 326 265 272 163 53 71 34 47 67 65 85 89 88 83 92
40 71 339 289 46 11 10 350 334 319 92 323 318 42 91 146 41 35 71 63 107 85 272 201 322 305 110 167 267 280 299 316 37 345 56 94 62 115 89 96 96 93 93 82 71
72 44 332 327 66 72 318 352 320 339 41 15 12 34 345 55 51 60 84 12 322 326 358 344 13 319 145 177 275 323 359 337 354 24 328 91 116 91 102 99 93 92 87 91 87
129 93 23 334 257 106 32 5 349 58 10 3 326 333 269 62 17 119 103 138 294 11 295 282 24 22 89 141 270 342 6 13 39 55 75 95 122 103 82 91 99 93 86 85 82
357 100 196 187 90 96 83 276 52 50 31 326 283 360 337 94 89 51 55 190 192 260 296 44 38 17 69 64 29 21 29 19 50 87 96 131 120 137 141 131 116 119 114 93 82
130 151 182 89 79 88 24 209 63 54 17 21 22 25 48 44 359 85 349 10 41 346 54 64 154 270 54 26 66 59 25 22 11 72 98 109 99 99 101 114 113 119 118 100 92
271 298 104 41 329 243 130 33 69 344 86 27 340 341 53 7 354 32 63 71 70 11 11 28 62 10 351 3 333 23 5 45 17 29 74 129 134 122 121 102 94 89 81 91 89